Location: Dillon
(41.1766°N, 107.0923°W)
Time: 17:19:32
(UTC+00:00)

SO-50 - Pass Details

Date: 13 July 2022
Orbit: 585 x 698 km, 64.6° (Epoch: 08 August)

Event Time Altitude Azimuth Distance (km) Brightness Sun altitude
Rises 03:16:34 0° 184° (S) 2,920 ? -6.4°
Reaches altitude 10° 03:19:01 10° 173° (S) 2,037 ? -6.7°
Maximum altitude 03:23:01 30° 113° (ESE) 1,193 ? -7.3°
Drops below altitude 10° 03:27:10 10° 53° (NE) 2,110 ? -7.9°
Sets 03:29:45 0° 43° (NE) 3,046 ? -8.3°
